MST,Max TemperatureF,Mean TemperatureF,Min TemperatureF,Max Dew PointF,MeanDew PointF,Min DewpointF,Max Humidity, Mean Humidity, Min Humidity, Max Sea Level PressureIn, Mean Sea Level PressureIn, Min Sea Level PressureIn, Max VisibilityMiles, Mean VisibilityMiles, Min VisibilityMiles, Max Wind SpeedMPH, Mean Wind SpeedMPH, Max Gust SpeedMPH,PrecipitationIn, CloudCover, Events, WindDirDegrees
2012-12-1,58,42,26,37,30,26,100,72,43,29.78,29.73,29.67,,,,18,4,24,0.00,,,257
2012-12-2,54,41,27,39,30,24,92,67,41,29.72,29.46,29.24,,,,26,7,35,0.00,,,154
2012-12-3,53,40,27,24,22,19,69,48,26,30.10,29.86,29.61,,,,31,14,39,0.00,,,273
2012-12-4,47,33,19,27,22,17,91,64,37,30.18,30.05,29.88,,,,15,3,20,0.00,,,182
2012-12-5,58,49,40,34,25,12,62,46,30,29.99,29.77,29.62,,,,24,10,39,0.00,,,278
2012-12-6,43,32,20,21,16,12,84,57,29,30.09,30.02,29.96,,,,24,7,31,0.00,,,287
2012-12-7,41,28,15,26,20,13,92,73,54,29.97,29.90,29.70,,,,18,3,23,0.00,,,277
2012-12-8,30,19,8,26,14,3,100,87,73,30.45,30.00,29.64,,,,28,13,35,0.09,,,8
2012-12-9,26,18,9,14,9,4,84,72,60,30.51,30.29,29.89,,,,20,7,24,0.00,,,221
2012-12-10,34,27,19,23,20,15,84,71,58,29.94,29.90,29.83,,,,31,12,38,0.00,,,284
2012-12-11,38,26,13,29,21,11,88,76,64,29.91,29.68,29.54,,,,14,5,17,0.00,,,271
2012-12-12,40,31,22,32,28,22,96,83,70,29.93,29.72,29.58,,,,9,1,13,0.00,,,330
2012-12-13,42,30,17,32,26,15,100,79,57,29.96,29.90,29.81,,,,14,4,16,0.00,,,219
2012-12-14,45,28,11,30,18,9,92,71,49,29.82,29.77,29.69,,,,5,1,,0.00,,,28
2012-12-15,36,25,13,18,15,10,92,72,51,29.84,29.81,29.77,,,,9,5,12,0.00,,,73
2012-12-16,39,24,8,25,14,5,92,70,48,29.78,29.73,29.67,,,,14,4,18,0.00,,,284
2012-12-17,40,23,6,23,15,4,88,66,44,29.69,29.50,29.38,,,,20,4,24,0.00,,,206
2012-12-18,34,26,18,25,17,14,85,65,45,29.87,29.67,29.49,,,,32,16,43,0.03,,,287
2012-12-19,31,16,1,17,9,-3,92,70,47,30.17,30.07,29.89,,,,17,4,22,0.01,,,288
2012-12-20,43,22,1,18,9,-3,95,64,33,30.15,30.07,29.99,,,,16,3,18,0.00,,,230
2012-12-21,49,33,16,24,16,12,88,56,24,30.13,30.03,29.95,,,,20,4,23,0.00,,,346
2012-12-22,16,12,7,10,6,3,92,80,67,30.27,30.19,30.11,,,,14,8,18,0.00,,,67
2012-12-23,16,4,-8,6,1,-12,95,81,67,30.24,30.17,30.09,,,,12,4,14,0.05,,,353
2012-12-24,8,2,-5,3,0,-6,92,84,76,30.55,30.36,30.05,,,,14,7,17,0.06,,,358
2012-12-25,7,-5,-18,0,-6,-21,91,84,76,30.56,30.47,30.32,,,,9,3,12,0.08,,,297
2012-12-26,7,-5,-18,0,-11,-23,91,80,69,30.30,30.17,30.09,,,,9,3,12,0.00,,,61
2012-12-27,14,2,-11,5,-3,-12,87,77,66,30.17,30.13,30.09,,,,7,1,8,0.00,,,282
2012-12-28,25,14,2,14,8,2,88,74,60,30.14,30.10,30.06,,,,13,4,14,0.00,,,283
2012-12-29,32,20,8,18,11,4,88,71,53,30.16,30.10,30.05,,,,14,6,15,0.00,,,278
2012-12-30,28,18,7,21,17,7,92,84,75,30.18,30.14,30.06,,,,13,5,16,0.00,,,283
2012-12-31,28,14,0,16,9,-3,100,77,53,30.21,30.16,30.10,,,,12,4,14,0.00,,,283